| time (UTC) | temp C | wind direction | speed KPH | gust KPH | rain 1hr cm | rain 24hr cm | rain mn cm | humidity % | barometer mb |
| 20260510231002 | 26 | 48 | 4.8 | 16.1 | 0.00 | 0.00 | 0.00 | 17 | 1013.7 |
| 20260510230502 | 26 | 355 | 9.7 | 16.1 | 0.00 | 0.00 | 0.00 | 17 | 1013.8 |
| 20260510230059 | 26 | 16 | 6.4 | 14.5 | 0.00 | 0.00 | 0.00 | 17 | 1013.8 |
| 20260510225558 | 26 | 308 | 3.2 | 14.5 | 0.00 | 0.00 | 0.00 | 16 | 1014.0 |
| 20260510225059 | 26 | 1 | 3.2 | 9.7 | 0.00 | 0.00 | 0.00 | 16 | 1014.0 |
| 20260510224602 | 25 | 290 | 1.6 | 12.9 | 0.00 | 0.00 | 0.00 | 15 | 1014.0 |
| 20260510224053 | 25 | 340 | 3.2 | 12.9 | 0.00 | 0.00 | 0.00 | 16 | 1014.1 |
| 20260510223552 | 25 | 306 | 4.8 | 9.7 | 0.00 | 0.00 | 0.00 | 16 | 1014.2 |
| 20260510223054 | 25 | 90 | 0.0 | 11.3 | 0.00 | 0.00 | 0.00 | 16 | 1014.3 |
| 20260510222549 | 25 | 224 | 3.2 | 11.3 | 0.00 | 0.00 | 0.00 | 15 | 1014.3 |
| 20260510222048 | 25 | 240 | 3.2 | 11.3 | 0.00 | 0.00 | 0.00 | 15 | 1014.4 |
| 20260510221548 | 25 | 194 | 4.8 | 9.7 | 0.00 | 0.00 | 0.00 | 15 | 1014.5 |
| 20260510221045 | 25 | 240 | 1.6 | 6.4 | 0.00 | 0.00 | 0.00 | 15 | 1014.6 |
| 20260510220543 | 25 | 178 | 0.0 | 9.7 | 0.00 | 0.00 | 0.00 | 15 | 1014.6 |
| 20260510220042 | 25 | 211 | 3.2 | 16.1 | 0.00 | 0.00 | 0.00 | 16 | 1014.8 |
| 20260510215541 | 25 | 107 | 3.2 | 16.1 | 0.00 | 0.00 | 0.00 | 15 | 1014.8 |
| 20260510215042 | 26 | 13 | 1.6 | 6.4 | 0.00 | 0.00 | 0.00 | 15 | 1014.9 |
| 20260510214545 | 26 | 47 | 1.6 | 12.9 | 0.00 | 0.00 | 0.00 | 15 | 1015.0 |
| 20260510214035 | 26 | 97 | 4.8 | 11.3 | 0.00 | 0.00 | 0.00 | 14 | 1015.2 |
| 20260510213534 | 25 | 105 | 1.6 | 14.5 | 0.00 | 0.00 | 0.00 | 16 | 1015.3 |
| 20260510213032 | 25 | 66 | 4.8 | 14.5 | 0.00 | 0.00 | 0.00 | 15 | 1015.2 |
| 20260510212531 | 25 | 2 | 1.6 | 8.0 | 0.00 | 0.00 | 0.00 | 14 | 1015.4 |
| 20260510212029 | 25 | 32 | 0.0 | 9.7 | 0.00 | 0.00 | 0.00 | 14 | 1015.4 |
| 20260510211528 | 25 | 105 | 3.2 | 16.1 | 0.00 | 0.00 | 0.00 | 15 | 1015.5 |
| 20260510211026 | 25 | 5 | 8.0 | 16.1 | 0.00 | 0.00 | 0.00 | 15 | 1015.6 |
| 20260510210527 | 25 | 45 | 6.4 | 14.5 | 0.00 | 0.00 | 0.00 | 16 | 1015.6 |
| 20260510210023 | 25 | 45 | 4.8 | 20.9 | 0.00 | 0.00 | 0.00 | 15 | 1015.6 |
| 20260510205522 | 25 | 18 | 8.0 | 20.9 | 0.00 | 0.00 | 0.00 | 16 | 1015.7 |
| 20260510205021 | 25 | 97 | 8.0 | 14.5 | 0.00 | 0.00 | 0.00 | 15 | 1015.7 |
| 20260510204520 | 25 | 94 | 6.4 | 14.5 | 0.00 | 0.00 | 0.00 | 14 | 1015.8 |
| 20260510204021 | 24 | 87 | 3.2 | 12.9 | 0.00 | 0.00 | 0.00 | 15 | 1015.8 |
| 20260510203516 | 24 | 109 | 4.8 | 16.1 | 0.00 | 0.00 | 0.00 | 15 | 1015.9 |
| 20260510203014 | 24 | 23 | 6.4 | 16.1 | 0.00 | 0.00 | 0.00 | 16 | 1015.9 |
| 20260510202516 | 24 | 359 | 11.3 | 16.1 | 0.00 | 0.00 | 0.00 | 16 | 1015.9 |
| 20260510202014 | 24 | 20 | 6.4 | 14.5 | 0.00 | 0.00 | 0.00 | 17 | 1015.9 |
| 20260510201511 | 24 | 345 | 4.8 | 9.7 | 0.00 | 0.00 | 0.00 | 15 | 1016.1 |
| 20260510201009 | 23 | 292 | 0.0 | 12.9 | 0.00 | 0.00 | 0.00 | 16 | 1016.0 |
| 20260510200508 | 23 | 84 | 6.4 | 14.5 | 0.00 | 0.00 | 0.00 | 16 | 1016.1 |
| 20260510200007 | 23 | 5 | 4.8 | 14.5 | 0.00 | 0.00 | 0.00 | 16 | 1016.1 |
| 20260510195504 | 23 | 16 | 4.8 | 12.9 | 0.00 | 0.00 | 0.00 | 16 | 1016.2 |
| 20260510195003 | 23 | 305 | 1.6 | 11.3 | 0.00 | 0.00 | 0.00 | 16 | 1016.3 |
| 20260510194503 | 23 | 214 | 4.8 | 11.3 | 0.00 | 0.00 | 0.00 | 18 | 1016.3 |
| 20260510194100 | 23 | 359 | 1.6 | 8.0 | 0.00 | 0.00 | 0.00 | 16 | 1016.3 |
| 20260510193559 | 23 | 359 | 4.8 | 9.7 | 0.00 | 0.00 | 0.00 | 17 | 1016.4 |
| 20260510193102 | 23 | 20 | 1.6 | 20.9 | 0.00 | 0.00 | 0.00 | 17 | 1016.5 |
| 20260510192555 | 23 | 295 | 11.3 | 20.9 | 0.00 | 0.00 | 0.00 | 16 | 1016.4 |
| 20260510192056 | 24 | 26 | 8.0 | 16.1 | 0.00 | 0.00 | 0.00 | 16 | 1016.6 |
| 20260510191557 | 24 | 76 | 8.0 | 14.5 | 0.00 | 0.00 | 0.00 | 16 | 1016.7 |
| 20260510191051 | 23 | 47 | 3.2 | 12.9 | 0.00 | 0.00 | 0.00 | 18 | 1016.7 |
| 20260510190551 | 23 | 113 | 0.0 | 9.7 | 0.00 | 0.00 | 0.00 | 18 | 1016.8 |
| 20260510190050 | 23 | 307 | 0.0 | 12.9 | 0.00 | 0.00 | 0.00 | 17 | 1016.8 |
| 20260510185547 | 23 | 95 | 4.8 | 12.9 | 0.00 | 0.00 | 0.00 | 18 | 1016.8 |
| 20260510185044 | 22 | 290 | 0.0 | 12.9 | 0.00 | 0.00 | 0.00 | 17 | 1016.9 |
| 20260510184546 | 22 | 268 | 1.6 | 12.9 | 0.00 | 0.00 | 0.00 | 20 | 1017.0 |
| 20260510184045 | 22 | 233 | 1.6 | 8.0 | 0.00 | 0.00 | 0.00 | 18 | 1017.1 |
| 20260510183541 | 22 | 255 | 4.8 | 14.5 | 0.00 | 0.00 | 0.00 | 19 | 1017.1 |
| 20260510183040 | 22 | 234 | 8.0 | 14.5 | 0.00 | 0.00 | 0.00 | 19 | 1017.2 |
| 20260510182538 | 22 | 261 | 4.8 | 16.1 | 0.00 | 0.00 | 0.00 | 19 | 1017.3 |
| 20260510182036 | 22 | 85 | 4.8 | 16.1 | 0.00 | 0.00 | 0.00 | 19 | 1017.3 |
| 20260510181554 | 22 | 75 | 4.8 | 16.1 | 0.00 | 0.00 | 0.00 | 19 | 1017.3 |
| 20260510181036 | 22 | 178 | 11.3 | 16.1 | 0.00 | 0.00 | 0.00 | 20 | 1017.5 |
| 20260510180533 | 22 | 277 | 1.6 | 19.3 | 0.00 | 0.00 | 0.00 | 19 | 1017.5 |
| 20260510180041 | 21 | 109 | 8.0 | 19.3 | 0.00 | 0.00 | 0.00 | 20 | 1017.5 |
| 20260510175530 | 21 | 113 | 6.4 | 14.5 | 0.00 | 0.00 | 0.00 | 21 | 1017.7 |
| 20260510175029 | 21 | 205 | 4.8 | 16.1 | 0.00 | 0.00 | 0.00 | 22 | 1017.6 |
| 20260510174528 | 21 | 239 | 6.4 | 16.1 | 0.00 | 0.00 | 0.00 | 21 | 1017.6 |
| 20260510174025 | 21 | 163 | 3.2 | 16.1 | 0.00 | 0.00 | 0.00 | 21 | 1017.6 |
| 20260510173524 | 21 | 161 | 8.0 | 16.1 | 0.00 | 0.00 | 0.00 | 22 | 1017.6 |
| 20260510173025 | 21 | 186 | 11.3 | 22.5 | 0.00 | 0.00 | 0.00 | 22 | 1017.7 |
| 20260510172521 | 21 | 163 | 11.3 | 24.1 | 0.00 | 0.00 | 0.00 | 21 | 1017.6 |
| 20260510172020 | 20 | 108 | 3.2 | 16.1 | 0.00 | 0.00 | 0.00 | 22 | 1017.6 |
| 20260510171521 | 20 | 168 | 9.7 | 16.1 | 0.00 | 0.00 | 0.00 | 22 | 1017.7 |
| 20260510171017 | 20 | 170 | 8.0 | 12.9 | 0.00 | 0.00 | 0.00 | 22 | 1017.6 |
| 20260510170516 | 20 | 150 | 6.4 | 17.7 | 0.00 | 0.00 | 0.00 | 24 | 1017.6 |
| 20260510170014 | 20 | 131 | 9.7 | 17.7 | 0.00 | 0.00 | 0.00 | 24 | 1017.8 |
| 20260510165515 | 20 | 138 | 8.0 | 16.1 | 0.00 | 0.00 | 0.00 | 25 | 1017.7 |
| 20260510165013 | 20 | 194 | 9.7 | 16.1 | 0.00 | 0.00 | 0.00 | 25 | 1017.7 |
| 20260510164521 | 20 | 143 | 9.7 | 19.3 | 0.00 | 0.00 | 0.00 | 25 | 1017.7 |
| 20260510164007 | 20 | 134 | 9.7 | 19.3 | 0.00 | 0.00 | 0.00 | 25 | 1017.8 |
| 20260510163506 | 19 | 157 | 9.7 | 17.7 | 0.00 | 0.00 | 0.00 | 27 | 1017.8 |
| 20260510163005 | 18 | 179 | 3.2 | 17.7 | 0.00 | 0.00 | 0.00 | 27 | 1017.7 |
| 20260510162502 | 18 | 150 | 4.8 | 14.5 | 0.00 | 0.00 | 0.00 | 28 | 1017.7 |
| 20260510162001 | 17 | 143 | 6.4 | 12.9 | 0.00 | 0.00 | 0.00 | 28 | 1017.7 |
| 20260510161606 | 17 | 192 | 3.2 | 12.9 | 0.00 | 0.00 | 0.00 | 30 | 1017.8 |
| 20260510161059 | 16 | 151 | 4.8 | 9.7 | 0.00 | 0.00 | 0.00 | 31 | 1017.8 |
| 20260510160556 | 16 | 206 | 3.2 | 8.0 | 0.00 | 0.00 | 0.00 | 32 | 1017.9 |
| 20260510160056 | 16 | 211 | 3.2 | 8.0 | 0.00 | 0.00 | 0.00 | 34 | 1018.1 |
| 20260510155553 | 15 | 189 | 1.6 | 9.7 | 0.00 | 0.00 | 0.00 | 36 | 1018.1 |
| 20260510155053 | 15 | 217 | 1.6 | 8.0 | 0.00 | 0.00 | 0.00 | 37 | 1018.1 |
| 20260510154557 | 13 | 178 | 3.2 | 8.0 | 0.00 | 0.00 | 0.00 | 36 | 1018.2 |
| 20260510154050 | 13 | 172 | 3.2 | 8.0 | 0.00 | 0.00 | 0.00 | 37 | 1018.2 |
| 20260510153552 | 13 | 158 | 4.8 | 8.0 | 0.00 | 0.00 | 0.00 | 39 | 1018.2 |
| 20260510153051 | 12 | 163 | 4.8 | 8.0 | 0.00 | 0.00 | 0.00 | 40 | 1018.2 |
| 20260510152545 | 12 | 218 | 1.6 | 6.4 | 0.00 | 0.00 | 0.00 | 42 | 1018.3 |
| 20260510152045 | 11 | 218 | 1.6 | 6.4 | 0.00 | 0.00 | 0.00 | 42 | 1018.2 |
| 20260510151545 | 11 | 218 | 0.0 | 4.8 | 0.00 | 0.00 | 0.00 | 43 | 1018.3 |
| 20260510151040 | 10 | 218 | 0.0 | 4.8 | 0.00 | 0.00 | 0.00 | 44 | 1018.3 |
| 20260510150538 | 10 | 218 | 0.0 | 4.8 | 0.00 | 0.00 | 0.00 | 45 | 1018.3 |
| 20260510150049 | 9 | 218 | 0.0 | 3.2 | 0.00 | 0.00 | 0.00 | 46 | 1018.3 |
| 20260510145535 | 8 | 218 | 0.0 | 4.8 | 0.00 | 0.00 | 0.00 | 49 | 1018.4 |
| 20260510145035 | 8 | 218 | 1.6 | 4.8 | 0.00 | 0.00 | 0.00 | 51 | 1018.4 |
| 20260510144536 | 7 | 228 | 1.6 | 4.8 | 0.00 | 0.00 | 0.00 | 52 | 1018.4 |
| 20260510144031 | 7 | 135 | 0.0 | 3.2 | 0.00 | 0.00 | 0.00 | 53 | 1018.4 |
| 20260510143530 | 6 | 137 | 0.0 | 3.2 | 0.00 | 0.00 | 0.00 | 53 | 1018.4 |
| 20260510143029 | 5 | 137 | 0.0 | 3.2 | 0.00 | 0.00 | 0.00 | 52 | 1018.5 |
| 20260510142527 | 5 | 207 | 0.0 | 4.8 | 0.00 | 0.00 | 0.00 | 51 | 1018.4 |
| 20260510142025 | 4 | 207 | 0.0 | 4.8 | 0.00 | 0.00 | 0.00 | 50 | 1018.4 |
| 20260510141524 | 3 | 207 | 1.6 | 4.8 | 0.00 | 0.00 | 0.00 | 44 | 1018.5 |
| 20260510141023 | 3 | 207 | 1.6 | 4.8 | 0.00 | 0.00 | 0.00 | 42 | 1018.4 |
| 20260510140520 | 2 | 207 | 1.6 | 4.8 | 0.00 | 0.00 | 0.00 | 40 | 1018.3 |
| 20260510140019 | 2 | 249 | 1.6 | 4.8 | 0.00 | 0.00 | 0.00 | 41 | 1018.3 |
| 20260510135521 | 2 | 215 | 0.0 | 0.0 | 0.00 | 0.00 | 0.00 | 38 | 1018.2 |
| 20260510135021 | 1 | 215 | 0.0 | 0.0 | 0.00 | 0.00 | 0.00 | 35 | 1018.2 |
| 20260510134516 | 1 | 217 | 0.0 | 0.0 | 0.00 | 0.00 | 0.00 | 34 | 1018.1 |
| 20260510134014 | 0 | 217 | 0.0 | 0.0 | 0.00 | 0.00 | 0.00 | 34 | 1018.1 |
| 20260510133512 | 0 | 215 | 0.0 | 0.0 | 0.00 | 0.00 | 0.00 | 34 | 1017.9 |
| 20260510133011 | 0 | 215 | 0.0 | 0.0 | 0.00 | 0.00 | 0.00 | 32 | 1017.9 |
| 20260510132510 | -1 | 215 | 0.0 | 0.0 | 0.00 | 0.00 | 0.00 | 31 | 1017.9 |
| 20260510132009 | -1 | 215 | 0.0 | 0.0 | 0.00 | 0.00 | 0.00 | 25 | 1017.8 |
| 20260510131509 | -1 | 215 | 0.0 | 0.0 | 0.00 | 0.00 | 0.00 | 23 | 1017.6 |
| 20260510131006 | -2 | 215 | 0.0 | 0.0 | 0.00 | 0.00 | 0.00 | 30 | 1017.5 |
| 20260510130505 | -2 | 215 | 0.0 | 0.0 | 0.00 | 0.00 | 0.00 | 34 | 1017.6 |
| 20260510130003 | -2 | 215 | 0.0 | 1.6 | 0.00 | 0.00 | 0.00 | 39 | 1017.4 |
| 20260510125501 | -2 | 215 | 0.0 | 6.4 | 0.00 | 0.00 | 0.00 | 37 | 1017.2 |
| 20260510125100 | -2 | 215 | 1.6 | 6.4 | 0.00 | 0.00 | 0.00 | 34 | 1017.2 |
| 20260510124606 | -1 | 215 | 1.6 | 4.8 | 0.00 | 0.00 | 0.00 | 27 | 1017.1 |
| 20260510124057 | -1 | 215 | 3.2 | 4.8 | 0.00 | 0.00 | 0.00 | 21 | 1017.0 |
| 20260510123556 | -1 | 215 | 0.0 | 0.0 | 0.00 | 0.00 | 0.00 | 15 | 1016.9 |
| 20260510123059 | -1 | 215 | 0.0 | 0.0 | 0.00 | 0.00 | 0.00 | 15 | 1016.9 |
| 20260510122556 | -2 | 215 | 0.0 | 0.0 | 0.00 | 0.00 | 0.00 | 16 | 1016.8 |
| 20260510122051 | -2 | 215 | 0.0 | 3.2 | 0.00 | 0.00 | 0.00 | 18 | 1016.7 |
| 20260510121551 | -2 | 215 | 0.0 | 3.2 | 0.00 | 0.00 | 0.00 | 25 | 1016.7 |
| 20260510121048 | -3 | 215 | 0.0 | 0.0 | 0.00 | 0.00 | 0.00 | 45 | 1016.6 |
| 20260510120551 | -3 | 215 | 0.0 | 4.8 | 0.00 | 0.00 | 0.00 | 47 | 1016.6 |
| 20260510120045 | -2 | 215 | 1.6 | 4.8 | 0.00 | 0.00 | 0.00 | 47 | 1016.6 |
| 20260510115544 | -2 | 215 | 0.0 | 3.2 | 0.00 | 0.00 | 0.00 | 45 | 1016.5 |
| 20260510115043 | -1 | 215 | 0.0 | 0.0 | 0.00 | 0.00 | 0.00 | 43 | 1016.4 |
| 20260510114550 | -1 | 215 | 0.0 | 0.0 | 0.00 | 0.00 | 0.00 | 40 | 1016.3 |
| 20260510114040 | 0 | 215 | 0.0 | 1.6 | 0.00 | 0.00 | 0.00 | 29 | 1016.4 |
| 20260510113538 | 0 | 215 | 0.0 | 0.0 | 0.00 | 0.00 | 0.00 | 19 | 1016.3 |
| 20260510113037 | 0 | 215 | 0.0 | 1.6 | 0.00 | 0.00 | 0.00 | 19 | 1016.2 |
| 20260510112538 | 0 | 215 | 0.0 | 4.8 | 0.00 | 0.00 | 0.00 | 15 | 1016.2 |
| 20260510112034 | 0 | 215 | 0.0 | 4.8 | 0.00 | 0.00 | 0.00 | 13 | 1016.1 |
| 20260510111537 | 0 | 215 | 3.2 | 4.8 | 0.00 | 0.00 | 0.00 | 7 | 1016.1 |
| 20260510111030 | 0 | 215 | 1.6 | 3.2 | 0.00 | 0.00 | 0.00 | 4 | 1016.1 |
| 20260510110532 | -1 | 215 | 1.6 | 3.2 | 0.00 | 0.00 | 0.00 | 8 | 1016.0 |
| 20260510110033 | -2 | 215 | 0.0 | 3.2 | 0.00 | 0.00 | 0.00 | 37 | 1016.0 |
| 20260510105527 | -2 | 215 | 0.0 | 0.0 | 0.00 | 0.00 | 0.00 | 43 | 1015.8 |
| 20260510105025 | -1 | 215 | 0.0 | 0.0 | 0.00 | 0.00 | 0.00 | 42 | 1015.8 |
| 20260510104524 | -1 | 215 | 0.0 | 0.0 | 0.00 | 0.00 | 0.00 | 36 | 1015.7 |
| 20260510104022 | 0 | 215 | 0.0 | 0.0 | 0.00 | 0.00 | 0.00 | 27 | 1015.6 |
| 20260510103520 | 0 | 215 | 0.0 | 0.0 | 0.00 | 0.00 | 0.00 | 15 | 1015.6 |
| 20260510103019 | 0 | 215 | 0.0 | 3.2 | 0.00 | 0.00 | 0.00 | 18 | 1015.5 |
| 20260510102518 | 0 | 215 | 0.0 | 3.2 | 0.00 | 0.00 | 0.00 | 20 | 1015.5 |
| 20260510102019 | 0 | 215 | 0.0 | 1.6 | 0.00 | 0.00 | 0.00 | 21 | 1015.5 |
| 20260510101515 | 0 | 215 | 0.0 | 1.6 | 0.00 | 0.00 | 0.00 | 20 | 1015.5 |
| 20260510101013 | 0 | 215 | 0.0 | 6.4 | 0.00 | 0.00 | 0.00 | 23 | 1015.3 |
| 20260510100512 | 0 | 215 | 0.0 | 6.4 | 0.00 | 0.00 | 0.00 | 35 | 1015.2 |
| 20260510100010 | 0 | 215 | 3.2 | 4.8 | 0.00 | 0.00 | 0.00 | 33 | 1015.1 |
| 20260510095514 | 0 | 215 | 0.0 | 3.2 | 0.00 | 0.00 | 0.00 | 19 | 1015.1 |
| 20260510095012 | 0 | 215 | 0.0 | 4.8 | 0.00 | 0.00 | 0.00 | 25 | 1015.1 |
| 20260510094518 | 0 | 215 | 1.6 | 4.8 | 0.00 | 0.00 | 0.00 | 41 | 1015.0 |
| 20260510094004 | 0 | 215 | 0.0 | 0.0 | 0.00 | 0.00 | 0.00 | 47 | 1014.9 |
| 20260510093502 | 0 | 215 | 0.0 | 1.6 | 0.00 | 0.00 | 0.00 | 48 | 1014.8 |
| 20260510093121 | 0 | 215 | 0.0 | 4.8 | 0.00 | 0.00 | 0.00 | 49 | 1014.8 |
| 20260510092600 | 0 | 215 | 1.6 | 4.8 | 0.00 | 0.00 | 0.00 | 49 | 1014.7 |
| 20260510092059 | 0 | 215 | 0.0 | 4.8 | 0.00 | 0.00 | 0.00 | 49 | 1014.7 |
| 20260510091559 | 0 | 215 | 1.6 | 4.8 | 0.00 | 0.00 | 0.00 | 50 | 1014.6 |
| 20260510091057 | 1 | 215 | 3.2 | 4.8 | 0.00 | 0.00 | 0.00 | 45 | 1014.6 |
| 20260510090556 | 1 | 215 | 0.0 | 3.2 | 0.00 | 0.00 | 0.00 | 45 | 1014.5 |
| 20260510090055 | 1 | 215 | 0.0 | 0.0 | 0.00 | 0.00 | 0.00 | 53 | 1014.4 |
| 20260510085553 | 1 | 215 | 0.0 | 0.0 | 0.00 | 0.00 | 0.00 | 55 | 1014.3 |
| 20260510085052 | 1 | 215 | 0.0 | 0.0 | 0.00 | 0.00 | 0.00 | 56 | 1014.3 |
| 20260510084550 | 2 | 215 | 0.0 | 0.0 | 0.00 | 0.00 | 0.00 | 55 | 1014.3 |
| 20260510084052 | 2 | 215 | 0.0 | 0.0 | 0.00 | 0.00 | 0.00 | 54 | 1014.2 |
| 20260510083549 | 2 | 215 | 0.0 | 0.0 | 0.00 | 0.00 | 0.00 | 55 | 1014.2 |
| 20260510083055 | 2 | 215 | 0.0 | 0.0 | 0.00 | 0.00 | 0.00 | 55 | 1014.2 |
| 20260510082545 | 3 | 215 | 0.0 | 1.6 | 0.00 | 0.00 | 0.00 | 55 | 1014.1 |
| 20260510082045 | 3 | 215 | 0.0 | 1.6 | 0.00 | 0.00 | 0.00 | 54 | 1014.1 |
| 20260510081544 | 3 | 215 | 0.0 | 1.6 | 0.00 | 0.00 | 0.00 | 54 | 1014.1 |
| 20260510081044 | 3 | 215 | 0.0 | 1.6 | 0.00 | 0.00 | 0.00 | 54 | 1014.1 |
| 20260510080545 | 3 | 215 | 0.0 | 3.2 | 0.00 | 0.00 | 0.00 | 53 | 1014.1 |
| 20260510075543 | 3 | 215 | 0.0 | 4.8 | 0.00 | 0.00 | 0.00 | 53 | 1014.0 |
| 20260510075042 | 3 | 215 | 1.6 | 3.2 | 0.00 | 0.00 | 0.00 | 53 | 1014.0 |
| 20260510074546 | 3 | 215 | 0.0 | 6.4 | 0.00 | 0.00 | 0.00 | 54 | 1013.9 |
| 20260510074041 | 3 | 215 | 1.6 | 6.4 | 0.00 | 0.00 | 0.00 | 53 | 1013.9 |
| 20260510073538 | 3 | 215 | 1.6 | 3.2 | 0.00 | 0.00 | 0.00 | 54 | 1013.8 |
| 20260510073049 | 3 | 215 | 0.0 | 0.0 | 0.00 | 0.00 | 0.00 | 55 | 1013.7 |
| 20260510072537 | 3 | 215 | 0.0 | 3.2 | 0.00 | 0.00 | 0.00 | 55 | 1013.7 |
| 20260510072037 | 3 | 215 | 0.0 | 8.0 | 0.00 | 0.00 | 0.00 | 55 | 1013.7 |
| 20260510071539 | 3 | 215 | 4.8 | 8.0 | 0.00 | 0.00 | 0.00 | 55 | 1013.6 |
| 20260510071034 | 3 | 215 | 4.8 | 8.0 | 0.00 | 0.00 | 0.00 | 55 | 1013.6 |
| 20260510070532 | 3 | 215 | 3.2 | 4.8 | 0.00 | 0.00 | 0.00 | 54 | 1013.5 |
| 20260510070032 | 3 | 215 | 0.0 | 4.8 | 0.00 | 0.00 | 0.00 | 53 | 1013.5 |
| 20260510065531 | 3 | 215 | 0.0 | 4.8 | 0.00 | 0.00 | 0.00 | 52 | 1013.4 |
| 20260510065030 | 3 | 215 | 0.0 | 3.2 | 0.00 | 0.00 | 0.00 | 49 | 1013.3 |
| 20260510064530 | 3 | 215 | 0.0 | 4.8 | 0.00 | 0.00 | 0.00 | 51 | 1013.3 |
| 20260510064028 | 3 | 215 | 1.6 | 4.8 | 0.00 | 0.00 | 0.00 | 54 | 1013.2 |
| 20260510063526 | 3 | 215 | 1.6 | 4.8 | 0.00 | 0.00 | 0.00 | 55 | 1013.1 |
| 20260510063025 | 4 | 215 | 1.6 | 4.8 | 0.00 | 0.00 | 0.00 | 55 | 1013.0 |
| 20260510062523 | 5 | 215 | 0.0 | 1.6 | 0.00 | 0.00 | 0.00 | 54 | 1013.0 |
| 20260510062022 | 5 | 215 | 0.0 | 3.2 | 0.00 | 0.00 | 0.00 | 54 | 1012.8 |
| 20260510061522 | 5 | 215 | 0.0 | 1.6 | 0.00 | 0.00 | 0.00 | 55 | 1012.7 |
| 20260510061021 | 5 | 215 | 0.0 | 3.2 | 0.00 | 0.00 | 0.00 | 55 | 1012.6 |
| 20260510060521 | 5 | 215 | 1.6 | 3.2 | 0.00 | 0.00 | 0.00 | 55 | 1012.6 |
| 20260510060034 | 5 | 215 | 1.6 | 4.8 | 0.00 | 0.00 | 0.00 | 55 | 1012.5 |
| 20260510055618 | 5 | 215 | 3.2 | 4.8 | 0.00 | 0.00 | 0.00 | 56 | 1012.5 |
| 20260510055017 | 5 | 215 | 0.0 | 3.2 | 0.00 | 0.00 | 0.00 | 55 | 1012.4 |
| 20260510054523 | 4 | 215 | 1.6 | 3.2 | 0.00 | 0.00 | 0.00 | 55 | 1012.4 |
| 20260510054021 | 4 | 215 | 1.6 | 3.2 | 0.00 | 0.00 | 0.00 | 56 | 1012.4 |
| 20260510053516 | 4 | 215 | 1.6 | 3.2 | 0.00 | 0.00 | 0.00 | 56 | 1012.4 |
| 20260510053015 | 3 | 215 | 0.0 | 3.2 | 0.00 | 0.00 | 0.00 | 56 | 1012.3 |
| 20260510052516 | 3 | 215 | 1.6 | 3.2 | 0.00 | 0.00 | 0.00 | 56 | 1012.2 |
| 20260510052014 | 3 | 215 | 0.0 | 3.2 | 0.00 | 0.00 | 0.00 | 53 | 1012.2 |
| 20260510051514 | 3 | 215 | 0.0 | 4.8 | 0.00 | 0.00 | 0.00 | 53 | 1012.1 |
| 20260510051012 | 3 | 215 | 1.6 | 4.8 | 0.00 | 0.00 | 0.00 | 54 | 1012.0 |
| 20260510050513 | 3 | 215 | 0.0 | 4.8 | 0.00 | 0.00 | 0.00 | 53 | 1012.0 |
| 20260510050014 | 3 | 215 | 1.6 | 4.8 | 0.00 | 0.00 | 0.00 | 52 | 1011.9 |
| 20260510045512 | 4 | 215 | 1.6 | 4.8 | 0.00 | 0.00 | 0.00 | 52 | 1012.0 |
| 20260510045008 | 5 | 215 | 0.0 | 4.8 | 0.00 | 0.00 | 0.00 | 53 | 1011.8 |
| 20260510044506 | 5 | 215 | 1.6 | 4.8 | 0.00 | 0.00 | 0.00 | 54 | 1011.9 |
| 20260510044005 | 6 | 215 | 0.0 | 4.8 | 0.00 | 0.00 | 0.00 | 53 | 1011.7 |
| 20260510043504 | 6 | 215 | 0.0 | 6.4 | 0.00 | 0.00 | 0.00 | 54 | 1011.7 |
| 20260510043002 | 6 | 215 | 3.2 | 6.4 | 0.00 | 0.00 | 0.00 | 54 | 1011.5 |
| 20260510042502 | 6 | 187 | 1.6 | 6.4 | 0.00 | 0.00 | 0.00 | 53 | 1011.5 |
| 20260510042100 | 6 | 170 | 3.2 | 6.4 | 0.00 | 0.00 | 0.00 | 51 | 1011.5 |
| 20260510041559 | 6 | 170 | 3.2 | 6.4 | 0.00 | 0.00 | 0.00 | 45 | 1011.4 |
| 20260510041058 | 7 | 170 | 0.0 | 4.8 | 0.00 | 0.00 | 0.00 | 44 | 1011.3 |
| 20260510040558 | 7 | 72 | 0.0 | 0.0 | 0.00 | 0.00 | 0.00 | 44 | 1011.2 |
| 20260510040059 | 7 | 72 | 0.0 | 0.0 | 0.00 | 0.00 | 0.00 | 45 | 1011.0 |
| 20260510035556 | 7 | 72 | 0.0 | 0.0 | 0.00 | 0.00 | 0.00 | 41 | 1010.9 |
| 20260510035055 | 8 | 72 | 0.0 | 0.0 | 0.00 | 0.00 | 0.00 | 40 | 1010.9 |
| 20260510034555 | 8 | 72 | 0.0 | 0.0 | 0.00 | 0.00 | 0.00 | 39 | 1010.8 |
| 20260510034055 | 9 | 72 | 0.0 | 0.0 | 0.00 | 0.00 | 0.00 | 40 | 1010.7 |
| 20260510033554 | 10 | 76 | 0.0 | 0.0 | 0.00 | 0.00 | 0.00 | 39 | 1010.6 |
| 20260510033102 | 10 | 74 | 0.0 | 3.2 | 0.00 | 0.00 | 0.00 | 37 | 1010.5 |
| 20260510032555 | 10 | 74 | 1.6 | 9.7 | 0.00 | 0.00 | 0.00 | 37 | 1010.5 |
| 20260510032053 | 11 | 74 | 4.8 | 9.7 | 0.00 | 0.00 | 0.00 | 37 | 1010.3 |
| 20260510031553 | 12 | 305 | 0.0 | 4.8 | 0.00 | 0.00 | 0.00 | 36 | 1010.2 |
| 20260510031052 | 12 | 305 | 1.6 | 4.8 | 0.00 | 0.00 | 0.00 | 35 | 1010.1 |
| 20260510030552 | 12 | 305 | 0.0 | 4.8 | 0.00 | 0.00 | 0.00 | 35 | 1010.0 |
| 20260510025553 | 13 | 294 | 1.6 | 4.8 | 0.00 | 0.00 | 0.00 | 35 | 1009.9 |
| 20260510025054 | 13 | 295 | 1.6 | 6.4 | 0.00 | 0.00 | 0.00 | 38 | 1009.8 |
| 20260510024555 | 13 | 278 | 1.6 | 4.8 | 0.00 | 0.00 | 0.00 | 36 | 1009.8 |
| 20260510024052 | 13 | 296 | 1.6 | 6.4 | 0.00 | 0.00 | 0.00 | 35 | 1009.7 |
| 20260510023551 | 14 | 294 | 3.2 | 6.4 | 0.00 | 0.00 | 0.00 | 34 | 1009.6 |
| 20260510023053 | 15 | 303 | 3.2 | 6.4 | 0.00 | 0.00 | 0.00 | 32 | 1009.5 |
| 20260510022552 | 16 | 280 | 3.2 | 8.0 | 0.00 | 0.00 | 0.00 | 31 | 1009.4 |
| 20260510022053 | 17 | 301 | 4.8 | 8.0 | 0.00 | 0.00 | 0.00 | 27 | 1009.3 |
| 20260510021558 | 19 | 38 | 0.0 | 3.2 | 0.00 | 0.00 | 0.00 | 24 | 1009.3 |
| 20260510021151 | 20 | 38 | 0.0 | 4.8 | 0.00 | 0.00 | 0.00 | 23 | 1009.3 |
| 20260510020552 | 20 | 38 | 1.6 | 6.4 | 0.00 | 0.00 | 0.00 | 23 | 1009.2 |
| 20260510020050 | 20 | 38 | 1.6 | 6.4 | 0.00 | 0.00 | 0.00 | 22 | 1009.2 |
| 20260510015550 | 21 | 57 | 1.6 | 4.8 | 0.00 | 0.00 | 0.00 | 21 | 1009.2 |
| 20260510015050 | 21 | 39 | 1.6 | 8.0 | 0.00 | 0.00 | 0.00 | 21 | 1009.1 |
| 20260510014549 | 21 | 55 | 3.2 | 8.0 | 0.00 | 0.00 | 0.00 | 21 | 1009.1 |
| 20260510014049 | 21 | 22 | 3.2 | 4.8 | 0.00 | 0.00 | 0.00 | 21 | 1009.1 |
| 20260510013549 | 21 | 17 | 1.6 | 8.0 | 0.00 | 0.00 | 0.00 | 21 | 1009.1 |
| 20260510013049 | 21 | 359 | 3.2 | 19.3 | 0.00 | 0.00 | 0.00 | 20 | 1009.1 |
| 20260510012547 | 21 | 45 | 8.0 | 19.3 | 0.00 | 0.00 | 0.00 | 19 | 1009.1 |
| 20260510012050 | 21 | 55 | 4.8 | 14.5 | 0.00 | 0.00 | 0.00 | 21 | 1009.1 |
| 20260510011549 | 21 | 74 | 6.4 | 16.1 | 0.00 | 0.00 | 0.00 | 20 | 1009.1 |
| 20260510011046 | 21 | 72 | 8.0 | 16.1 | 0.00 | 0.00 | 0.00 | 20 | 1009.2 |
| 20260510010547 | 21 | 24 | 6.4 | 17.7 | 0.00 | 0.00 | 0.00 | 20 | 1009.2 |
| 20260510010045 | 21 | 331 | 8.0 | 19.3 | 0.00 | 0.00 | 0.00 | 21 | 1009.1 |
| 20260510005547 | 21 | 11 | 12.9 | 27.4 | 0.00 | 0.00 | 0.00 | 21 | 1009.2 |
| 20260510005046 | 21 | 359 | 14.5 | 25.7 | 0.00 | 0.00 | 0.00 | 21 | 1009.0 |
| 20260510004548 | 21 | 22 | 16.1 | 27.4 | 0.00 | 0.00 | 0.00 | 22 | 1009.1 |
| 20260510004043 | 21 | 28 | 14.5 | 27.4 | 0.00 | 0.00 | 0.00 | 21 | 1009.1 |
| 20260510003542 | 21 | 12 | 16.1 | 27.4 | 0.00 | 0.00 | 0.00 | 22 | 1009.1 |
| 20260510003042 | 21 | 24 | 16.1 | 25.7 | 0.00 | 0.00 | 0.00 | 23 | 1009.1 |
| 20260510002541 | 21 | 359 | 14.5 | 25.7 | 0.00 | 0.00 | 0.00 | 22 | 1009.1 |
| 20260510002040 | 21 | 39 | 16.1 | 25.7 | 0.00 | 0.00 | 0.00 | 23 | 1009.1 |
| 20260510001540 | 21 | 45 | 12.9 | 29.0 | 0.00 | 0.00 | 0.00 | 22 | 1009.1 |
| 20260510001040 | 21 | 359 | 16.1 | 29.0 | 0.00 | 0.00 | 0.00 | 23 | 1009.2 |
| 20260510000541 | 21 | 31 | 16.1 | 27.4 | 0.00 | 0.00 | 0.00 | 23 | 1009.1 |
| 20260510000042 | 21 | 317 | 9.7 | 24.1 | 0.00 | 0.00 | 0.00 | 21 | 1009.1 |
| 20260509235538 | 22 | 20 | 14.5 | 24.1 | 0.00 | 0.00 | 0.00 | 24 | 1009.0 |
| 20260509235037 | 22 | 345 | 14.5 | 27.4 | 0.00 | 0.00 | 0.00 | 24 | 1009.0 |
| 20260509234541 | 22 | 51 | 16.1 | 27.4 | 0.00 | 0.00 | 0.00 | 24 | 1009.0 |
| 20260509234040 | 21 | 52 | 17.7 | 30.6 | 0.00 | 0.00 | 0.00 | 25 | 1009.0 |
| 20260509233539 | 21 | 16 | 16.1 | 30.6 | 0.00 | 0.00 | 0.00 | 24 | 1009.2 |
| 20260509233037 | 21 | 27 | 9.7 | 29.0 | 0.00 | 0.00 | 0.00 | 24 | 1009.2 |
| 20260509232538 | 22 | 1 | 14.5 | 29.0 | 0.00 | 0.00 | 0.00 | 25 | 1009.1 |
| 20260509232035 | 22 | 38 | 14.5 | 25.7 | 0.00 | 0.00 | 0.00 | 25 | 1009.0 |
| 20260509231539 | 22 | 30 | 16.1 | 25.7 | 0.00 | 0.00 | 0.00 | 25 | 1009.0 |